OK1FET-5 Weather Reports


Display with metric or nautical units.
time (UTC)temp
F
wind
direction
speed
MPH
gust
MPH
rain 1hr
in
rain 24hr
in
rain mn
in
humidity
%
barometer
mb
20260905112530 76 295 4.0 8.0 0.00 0.00 0.00 40 1020.9
20260905111534 77 302 5.0 9.0 0.00 0.00 0.00 39 1021.0
20260905110538 76 285 7.0 14.0 0.00 0.00 0.00 38 1021.0
20260905105542 78 282 5.0 10.0 0.00 0.00 0.00 38 1021.0
20260905104546 76 290 6.0 12.0 0.00 0.00 0.00 39 1020.9
20260905103551 74 282 7.0 14.0 0.00 0.00 0.00 41 1020.6
20260905102555 77 285 6.0 13.0 0.00 0.00 0.00 39 1020.9
20260905101559 77 274 5.0 9.0 0.00 0.00 0.00 40 1021.0
20260905100603 77 282 7.0 13.0 0.00 0.00 0.00 40 1021.1
20260905095607 76 270 6.0 12.0 0.00 0.00 0.00 42 1020.9
20260905094612 78 276 7.0 13.0 0.00 0.00 0.00 40 1020.8
20260905093616 77 281 8.0 14.0 0.00 0.00 0.00 39 1020.9
20260905092620 76 286 7.0 15.0 0.00 0.00 0.00 40 1020.9
20260905091624 75 281 7.0 13.0 0.00 0.00 0.00 41 1020.8
20260905090629 76 273 7.0 17.0 0.00 0.00 0.00 41 1020.8
20260905085633 73 283 9.0 15.0 0.00 0.00 0.00 44 1020.8
20260905084637 75 276 7.0 17.0 0.00 0.00 0.00 42 1020.8
20260905083641 75 278 7.0 14.0 0.00 0.00 0.00 46 1020.9
20260905082645 74 288 8.0 16.0 0.00 0.00 0.00 45 1020.8
20260905081650 75 285 7.0 12.0 0.00 0.00 0.00 45 1020.8
20260905080654 74 278 7.0 12.0 0.00 0.00 0.00 47 1020.7
20260905075659 72 280 6.0 12.0 0.00 0.00 0.00 50 1020.7
20260905074702 73 278 6.0 12.0 0.00 0.00 0.00 49 1020.5
20260905073706 72 273 7.0 13.0 0.00 0.00 0.00 52 1020.3
20260905072711 72 271 6.0 13.0 0.00 0.00 0.00 53 1020.4
20260905071715 72 270 4.0 11.0 0.00 0.00 0.00 54 1020.3
20260905070719 70 268 5.0 13.0 0.00 0.00 0.00 57 1020.3
20260905065724 72 259 4.0 9.0 0.00 0.00 0.00 57 1020.4
20260905064728 70 265 4.0 12.0 0.00 0.00 0.00 58 1020.4
20260905063732 68 266 5.0 11.0 0.00 0.00 0.00 62 1020.3
20260905062736 67 267 5.0 11.0 0.00 0.00 0.00 63 1020.2
20260905061740 67 263 5.0 11.0 0.00 0.00 0.00 66 1020.2
20260905060745 66 249 3.0 7.0 0.00 0.00 0.00 69 1020.2
20260905055749 64 279 3.0 5.0 0.00 0.00 0.00 73 1020.1
20260905054753 63 274 3.0 6.0 0.00 0.00 0.00 72 1019.9
20260905053757 64 269 3.0 6.0 0.00 0.00 0.00 73 1019.8
20260905052802 62 246 2.0 7.0 0.00 0.00 0.00 75 1019.7
20260905051806 60 254 1.0 6.0 0.00 0.00 0.00 78 1019.5
20260905050810 56 259 2.0 4.0 0.00 0.00 0.00 83 1019.4
20260905045814 56 265 3.0 6.0 0.00 0.00 0.00 83 1019.2
20260905044819 56 275 3.0 6.0 0.00 0.00 0.00 82 1019.0
20260905043823 56 272 2.0 4.0 0.00 0.00 0.00 82 1018.9
20260905042827 56 285 2.0 6.0 0.00 0.00 0.00 82 1018.9
20260905041831 57 277 3.0 5.0 0.00 0.00 0.00 82 1018.7
20260905035840 57 294 2.0 4.0 0.00 0.00 0.00 81 1018.8
20260905034844 57 295 2.0 4.0 0.00 0.00 0.00 81 1018.7
20260905033849 57 276 3.0 6.0 0.00 0.00 0.00 81 1018.4
20260905032853 57 258 5.0 11.0 0.00 0.00 0.00 82 1017.8
20260905030902 57 268 2.0 6.0 0.00 0.00 0.00 80 1018.1
20260905025906 57 281 3.0 7.0 0.00 0.00 0.00 79 1018.3
20260905024910 58 283 4.0 8.0 0.00 0.00 0.00 80 1018.1
20260905023914 58 266 4.0 7.0 0.00 0.00 0.00 77 1017.8
20260905022919 59 265 5.0 8.0 0.00 0.00 0.00 75 1017.8
20260905021923 59 264 3.0 7.0 0.00 0.00 0.00 73 1017.4
20260905020927 60 264 4.0 8.0 0.00 0.00 0.00 71 1017.5
20260905015931 59 263 2.0 7.0 0.00 0.00 0.00 72 1017.1
20260905014936 59 258 2.0 6.0 0.00 0.00 0.00 73 1017.2
20260905013940 60 268 2.0 4.0 0.00 0.00 0.00 73 1017.4
20260905012944 60 291 3.0 7.0 0.00 0.00 0.00 73 1016.8
20260905011948 60 274 3.0 5.0 0.00 0.00 0.00 73 1016.8
20260905010953 60 279 3.0 5.0 0.00 0.00 0.00 73 1016.4
20260905005957 60 297 2.0 6.0 0.00 0.00 0.00 75 1016.4
20260905005001 60 277 4.0 7.0 0.00 0.00 0.00 77 1016.7
20260905004005 60 271 3.0 6.0 0.00 0.00 0.00 77 1016.7
20260905003010 60 271 3.0 7.0 0.00 0.00 0.00 76 1016.8
20260905002014 60 268 4.0 8.0 0.00 0.00 0.00 77 1016.5
20260905001018 60 269 5.0 9.0 0.00 0.00 0.00 78 1016.4
20260905000023 60 272 4.0 11.0 0.00 0.00 0.00 78 1016.0
20260904235027 61 285 2.0 6.0 0.00 0.00 0.00 76 1016.1
20260904234031 61 286 4.0 9.0 0.00 0.00 0.00 77 1016.3
20260904233035 62 281 4.0 9.0 0.00 0.00 0.00 74 1016.3
20260904232039 63 293 3.0 7.0 0.00 0.00 0.00 72 1016.1
20260904231044 63 299 4.0 8.0 0.00 0.00 0.00 70 1016.1
20260904230048 64 313 4.0 9.0 0.00 0.00 0.00 68 1016.4
20260904225052 64 290 3.0 6.0 0.00 0.00 0.00 68 1016.1
20260904224056 64 187 3.0 9.0 0.00 0.00 0.00 70 1015.5
20260904223101 63 180 2.0 6.0 0.00 0.00 0.00 70 1015.6
20260904222105 63 271 2.0 5.0 0.00 0.00 0.00 68 1015.1
20260904215117 63 358 3.0 9.0 0.00 0.00 0.00 68 1013.7
20260904214122 63 318 4.0 8.0 0.00 0.00 0.00 69 1013.7
20260904212130 63 291 3.0 8.0 0.00 0.00 0.00 66 1013.1
20260904211134 64 178 2.0 6.0 0.00 0.00 0.00 64 1013.1
20260904210139 64 87 3.0 8.0 0.00 0.00 0.00 64 1012.7
20260904205143 64 178 2.0 6.0 0.00 0.00 0.00 64 1012.7
20260904204147 65 294 2.0 7.0 0.00 0.00 0.00 61 1012.6
20260904203151 65 47 2.0 6.0 0.00 0.00 0.00 61 1012.6
20260904202155 66 39 3.0 7.0 0.00 0.00 0.00 61 1012.5
20260904201200 67 60 3.0 9.0 0.00 0.00 0.00 60 1012.4
20260904200204 67 37 2.0 7.0 0.00 0.00 0.00 60 1012.6
20260904195208 68 24 2.0 9.0 0.00 0.00 0.00 59 1012.7
20260904194212 69 27 3.0 7.0 0.00 0.00 0.00 58 1012.7
20260904193217 71 359 4.0 10.0 0.00 0.00 0.00 57 1012.6
20260904192221 74 9 2.0 7.0 0.00 0.00 0.00 57 1012.4
20260904191225 75 293 3.0 5.0 0.00 0.00 0.00 55 1012.3
20260904190229 75 273 5.0 8.0 0.00 0.00 0.00 54 1012.2
20260904185234 76 263 5.0 9.0 0.00 0.00 0.00 54 1012.0
20260904184238 76 258 4.0 7.0 0.00 0.00 0.00 54 1011.9
20260904183242 76 262 4.0 7.0 0.00 0.00 0.00 53 1011.7
20260904182246 76 263 4.0 7.0 0.00 0.00 0.00 53 1011.7
20260904181251 77 259 4.0 10.0 0.00 0.00 0.00 52 1011.6
20260904180255 77 259 3.0 8.0 0.00 0.00 0.00 52 1011.5
20260904175259 77 260 3.0 8.0 0.00 0.00 0.00 51 1011.5
20260904174303 78 269 3.0 7.0 0.00 0.00 0.00 50 1011.5
20260904173308 79 265 4.0 9.0 0.00 0.00 0.00 49 1011.5
20260904172312 80 255 5.0 11.0 0.00 0.00 0.00 48 1011.5
20260904171316 81 253 4.0 7.0 0.00 0.00 0.00 47 1011.6
20260904170320 81 268 3.0 7.0 0.00 0.00 0.00 47 1011.8
20260904165324 81 266 4.0 8.0 0.00 0.00 0.00 47 1011.8
20260904164329 81 266 5.0 9.0 0.00 0.00 0.00 46 1011.9
20260904163333 81 277 7.0 15.0 0.00 0.00 0.00 46 1012.1
20260904162337 82 269 6.0 10.0 0.00 0.00 0.00 45 1012.0
20260904160346 84 267 6.0 13.0 0.00 0.00 0.00 42 1012.0
20260904155350 86 259 7.0 20.0 0.00 0.00 0.00 40 1011.8
20260904154354 86 247 7.0 19.0 0.00 0.00 0.00 40 1011.6
20260904153358 85 249 7.0 15.0 0.00 0.00 0.00 42 1012.0
20260904152403 84 248 8.0 16.0 0.00 0.00 0.00 42 1012.0
20260904151407 85 249 10.0 19.0 0.00 0.00 0.00 41 1012.0
20260904150411 87 252 9.0 15.0 0.00 0.00 0.00 40 1012.0
20260904145415 87 241 10.0 18.0 0.00 0.00 0.00 40 1012.1
20260904144419 88 235 9.0 16.0 0.00 0.00 0.00 40 1012.4
20260904143424 88 242 8.0 17.0 0.00 0.00 0.00 39 1012.4
20260904142428 88 245 8.0 15.0 0.00 0.00 0.00 40 1012.3
20260904141432 87 253 9.0 15.0 0.00 0.00 0.00 41 1012.8
20260904140436 88 263 9.0 14.0 0.00 0.00 0.00 39 1012.9
20260904135440 88 257 7.0 11.0 0.00 0.00 0.00 39 1013.0
20260904134445 88 259 8.0 15.0 0.00 0.00 0.00 39 1013.1
20260904133449 86 270 9.0 19.0 0.00 0.00 0.00 42 1013.5
20260904132453 85 259 9.0 17.0 0.00 0.00 0.00 42 1013.6
20260904131457 87 255 7.0 16.0 0.00 0.00 0.00 41 1013.9
20260904130502 86 255 9.0 16.0 0.00 0.00 0.00 42 1013.8
20260904125506 86 259 8.0 18.0 0.00 0.00 0.00 43 1014.2
20260904124510 85 270 6.0 16.0 0.00 0.00 0.00 45 1014.5
20260904123514 84 260 8.0 17.0 0.00 0.00 0.00 46 1014.7
20260904122518 86 240 5.0 14.0 0.00 0.00 0.00 44 1014.9
20260904121523 85 244 6.0 11.0 0.00 0.00 0.00 46 1014.9
20260904120527 83 275 6.0 10.0 0.00 0.00 0.00 48 1015.2
20260904115531 82 263 7.0 14.0 0.00 0.00 0.00 49 1015.3
20260904114535 81 251 6.0 11.0 0.00 0.00 0.00 51 1015.5
20260904113539 79 269 8.0 16.0 0.00 0.00 0.00 52 1015.4